FENGYUN 1C DEB, 31877

Orbit data source: Space-Track

FENGYUN 1C DEB, 31877 is space debris in SSO originally from a launch on Mon, 10 May 1999 UTC launched from the Taiyaun Space Center, China (TSC). Fengyun 1C debris stems from the Chinese weather satellite Fengyun-1C, which was intentionally destroyed by a Chinese anti-satellite missile in 2007. This event dramatically increased the amount of space debris, with thousands of trackable fragments posing hazards to satellites and human spaceflight. The Fengyun 1C debris cloud has become a focal point in discussions about space sustainability and the need for international regulations to prevent the creation of new debris.

Loading next visibility...
Identifier
31877, 1999-025CKC
Orbit
SSO
Country
Flag of CNCN / PRC
Related business
Manufacturer
Unknown
Mission
Spacecraft
Bus & Motor
Unknown
Mass
Unknown
Launch date (UTC)
1999-05-10 (27 years ago)
Launch vehicle
Unknown
Launch site
Taiyaun Space Center, China (TSC)
Object type
Payload
Rocket body
Debris
Shape & HBR
Unknown shape, 0.1 m
Radar Cross Section
Small (<0.1 m²)

Expand to show TLE details & history
Last TLE update: 18 hours ago

TLE from 18 hours ago
0 FENGYUN 1C DEB
1 31877U 99025CKC 26072.69923424  .00012574  00000-0  81409-3 0  9991
2 31877  98.9923 162.5575 0098285 342.6323  17.1544 15.04374395  4078
Epoch: 2026-03-13T16:46Z
TLE epoch observation values (Epoch: 2026-03-13T16:46:53.838Z)
Latitude
-0.00005°
Longitude
99.50216°
Altitude
491.396 km
Speed
7.655 km/s
True Right ascension
10h 50m 13s
True Declination
0° 00' 00"
Sunlit
Object was in full shadow at epoch
Visualization orbit readout
Latitude
Unknown
Longitude
Unknown
Altitude
Unknown
Speed
Unknown
Apparent Right ascension
Unknown
Apparent Declination
Unknown
Sunlit
N/A
Visualization observer readout
Local Sidereal Time
14:50:06
Azimuth
Unknown
Elevation
Unknown
Doppler factor
Unknown
Orbital elements
Apogee altitude
618.585 km
Perigee altitude
482.389 km
Semi-major axis
6,928.624 km
Eccentricity
0.00983
Inclination
98.9923°
RAAN
162.5575°
Arg. of periapsis
342.6323°
True anomaly
17.49053°
Mean anomaly
17.1544°
Eccentric anomaly
17.32207°
Mean motion
3.76333 °/min
Orbital period
95.66 mins
BSTAR
0.00081409
Loading maneuver chart data...
Computing Atmospheric mass density...

Documentation

Showing up to 5 results
|